Flag for Uruguay Weather past 2 weeks in Maldonado, Uruguay

Now
52 °F

Partly sunny.


Feels Like: 47 °F
Forecast: 46 / 53 °F
Wind: 16 mph from South

Location: Capitan Corbeta

Current Time: Jul 24, 2014 at 11:43:09 AM

Latest Report: Jul 24, 2014 at 11:00 AM


Visibility: N/A

Pressure: 30.15 "Hg

Humidity: 54%

Dew point: 36 °F

Location of MaldonadoLocation

Historic Weather in Maldonado — Graph

°F

Maldonado temperature yesterday

Maximum temperature yesterday: 54 °F (at 12:00 AM)
Minimum temperature yesterday: 50 °F (at 6:00 PM)
Average temperature yesterday: 52 °F

Past Weeks' High & Low Weather Summary

 TemperatureHumidityPressure
High70 °F (Jul 21, 1:00 PM)100% (Jul 9, 9:00 PM)30.42 "Hg (Jul 9, 9:00 PM)
Low43 °F (Jul 10, 4:00 AM)43% (Jul 20, 4:00 PM)29.77 "Hg (Jul 22, 1:00 PM)
Average55 °F82%30.11 "Hg
* Reported Jul 9 10:00 AM — Jul 24 10:00 AM, Maldonado, Weather by CustomWeather, © 2014

Note: Actual official high and low records may vary slightly from our data, if they occured in-between our weather recording intervals... More about our weather records

Advertising

Maldonado weather history for previous 24 hours

 ConditionsComfort  
Time TempWeatherWind HumidityBarometerVisibility
10:00 AM
Jul 24
50 °FPartly sunny.17 mph54%30.15 "HgN/A
9:00 AM48 °FPartly sunny.17 mph58%30.12 "HgN/A
8:00 AM46 °FSunny.20 mph57%30.09 "Hg10 mi
7:00 AM46 °FSunny.18 mph62%30.07 "Hg10 mi
6:00 AM46 °FClear.21 mph62%30.04 "Hg10 mi
5:00 AM46 °FPassing clouds.23 mph66%30.04 "HgN/A
4:00 AM48 °FPassing clouds.21 mph71%30.04 "HgN/A
3:00 AM48 °FPartly cloudy.21 mph71%30.04 "HgN/A
2:00 AM48 °FClear.18 mph71%30.04 "Hg10 mi
1:00 AM48 °FPassing clouds.18 mph62%30.04 "HgN/A
12:00 AM50 °FPassing clouds.21 mph62%30.04 "HgN/A
11:00 PM
Jul 23
50 °FPartly cloudy.20 mph67%30.01 "HgN/A
10:00 PM50 °FPassing clouds.20 mph67%30.01 "HgN/A
9:00 PM50 °FPassing clouds.17 mph71%29.98 "HgN/A
7:00 PM50 °FPassing clouds.17 mph76%29.95 "HgN/A
6:00 PM50 °FPassing clouds.18 mph76%29.92 "HgN/A
5:00 PM52 °FOvercast.15 mph82%29.92 "HgN/A
4:00 PM52 °FOvercast.15 mph82%29.89 "HgN/A
3:00 PM52 °FOvercast.17 mph82%29.89 "HgN/A
2:00 PM52 °FOvercast.15 mph82%29.92 "HgN/A
1:00 PM52 °FOvercast.15 mph82%29.92 "HgN/A
12:00 PM52 °FOvercast.16 mph82%29.92 "HgN/A
11:00 AM52 °FLow clouds.17 mph82%29.95 "HgN/A
Weather by CustomWeather, © 2014

See weather overviewHow to use our weather pages